Date String (YYYY-MM-DD hh:mm:ss) UTC,Instrument flags,absolute air pressure of the measurement (hPa),sample flow rate (lpm),inlet stack bypass flow (lpm),air temperature of the measurement (°C),ambient temperature measured by the external sensor (°C),aerosol sample conditioner tube jacket temperature (°C),OPC LED temperature (°C),internal box temperature (°C),relative humidity of the measurement (%),span deviation,mass concentration of particles derived from Lorenz-Mie calculation of OPC scattering (μg/m³),mass concentration of particles derived from Lorenz-Mie calculation of OPC scattering (μg/m³),mass concentration of particles derived from Lorenz-Mie calculation of OPC scattering (μg/m³)
DateTimeUTC,F1_M11,P_M11,Q1_M11,Q2_M11,T1_M11,T2_M11,T3_M11,T4_M11,T5_M11,U1_M11,ZSPAN_M11,X2_M11,X0_M11,X1_M11
2023-10-20 14:00:00,SystemResetWarning,0832.3,4.99,000.00,029.4,028.1,000.0,037.8,031.1,7.4,0000.0,0000.51,0003.24,0000.41
2023-10-20 14:01:00,SystemResetWarning,0832.3,5.00,000.00,029.5,028.0,000.0,037.8,031.1,7.4,0000.0,0000.51,0003.24,0000.42
2023-10-20 14:02:00,SystemResetWarning,0832.3,5.00,000.00,029.4,026.9,000.0,037.8,031.0,7.6,0000.0,0000.51,0002.39,0000.41
2023-10-20 14:03:00,SystemResetWarning,0832.3,5.00,000.00,029.3,025.2,000.0,037.7,030.7,7.9,0000.0,0000.52,0001.86,0000.41
2023-10-20 14:04:00,SystemResetWarning,0832.3,5.00,000.00,029.2,024.8,000.0,037.7,030.6,8.0,0000.0,0000.51,0001.83,0000.41
2023-10-20 14:05:00,SystemResetWarning,0832.3,5.01,000.00,029.1,025.0,000.0,037.7,030.4,7.7,0000.0,0000.50,0001.72,0000.40
2023-10-20 14:06:00,SystemResetWarning,0832.3,5.00,000.00,029.0,025.4,000.0,037.6,030.3,7.7,0000.0,0000.50,0000.81,0000.40
2023-10-20 14:07:00,SystemResetWarning,0832.3,4.99,000.00,028.9,025.7,000.0,037.6,030.4,7.6,0000.0,0000.50,0000.82,0000.40
2023-10-20 14:08:00,SystemResetWarning,0832.3,4.99,000.00,028.9,026.1,000.0,037.6,030.4,7.6,0000.0,0000.50,0000.81,0000.41
2023-10-20 14:09:00,SystemResetWarning,0832.3,5.00,000.00,028.9,026.3,000.0,037.6,030.4,7.7,0000.0,0000.51,0000.85,0000.40
2023-10-20 14:10:00,SystemResetWarning,0832.3,5.01,000.00,028.9,026.6,000.0,037.6,030.4,7.7,0000.0,0000.50,0000.83,0000.40
2023-10-20 14:11:00,SystemResetWarning,0832.2,5.01,000.00,028.9,026.8,000.0,037.5,030.4,7.7,0000.0,0000.49,0000.77,0000.39
2023-10-20 14:12:00,SystemResetWarning,0832.2,5.00,000.00,028.9,027.0,000.0,037.5,030.5,7.6,0000.0,0000.49,0000.76,0000.39
2023-10-20 14:13:00,SystemResetWarning,0832.2,5.00,000.00,028.9,027.1,000.0,037.5,030.5,7.6,0000.0,0000.49,0000.76,0000.39
2023-10-20 14:14:00,SystemResetWarning,0832.2,5.00,000.00,028.9,027.3,000.0,037.5,030.5,7.6,0000.0,0000.50,0000.89,0000.40
2023-10-20 14:15:00,SystemResetWarning,0832.2,4.98,000.00,028.9,027.4,000.0,037.5,030.6,7.6,0000.0,0000.53,0001.23,0000.40
2023-10-20 14:16:00,SystemResetWarning,0832.3,5.00,000.00,028.9,027.4,000.0,037.5,030.6,7.6,0000.0,0000.53,0001.22,0000.40
2023-10-20 14:17:00,SystemResetWarning,0832.3,5.02,000.00,029.0,027.5,000.0,037.5,030.6,7.9,0000.0,0000.52,0001.21,0000.39
2023-10-20 14:18:00,SystemResetWarning,0832.3,5.00,000.00,029.0,027.6,000.0,037.5,030.7,7.8,0000.0,0000.53,0001.25,0000.39
2023-10-20 14:19:00,SystemResetWarning,0832.3,5.00,000.00,029.0,027.7,000.0,037.5,030.7,9.6,0000.0,0000.54,0001.35,0000.38
2023-10-20 14:20:00,SystemResetWarning,0832.3,5.00,000.00,029.0,027.7,000.0,037.5,030.7,10.7,0000.0,0000.55,0001.36,0000.39
2023-10-20 14:21:00,SystemResetWarning,0832.3,4.99,000.00,029.1,027.8,000.0,037.5,030.7,9.3,0000.0,0000.59,0001.43,0000.39
2023-10-20 14:22:00,SystemResetWarning,0832.4,5.01,000.00,029.1,027.8,000.0,037.5,030.8,9.1,0000.0,0000.58,0001.39,0000.39
2023-10-20 14:23:00,SystemResetWarning,0832.5,5.01,000.00,029.1,027.9,000.0,037.5,030.8,10.1,0000.0,0000.57,0001.41,0000.39
2023-10-20 14:24:00,SystemResetWarning,0832.5,5.00,000.00,029.1,027.9,000.0,037.5,030.8,9.4,0000.0,0000.59,0001.50,0000.39
2023-10-20 14:25:00,SystemResetWarning,0832.5,5.00,000.00,029.2,028.0,000.0,037.6,030.9,9.1,0000.0,0000.60,0001.51,0000.39
2023-10-20 14:26:00,SystemResetWarning,0832.5,4.99,000.00,029.2,028.0,000.0,037.6,030.9,8.7,0000.0,0000.59,0001.18,0000.38
2023-10-20 14:27:00,SystemResetWarning,0832.6,5.00,000.00,029.2,028.0,000.0,037.6,030.9,8.7,0000.0,0000.60,0001.20,0000.38
2023-10-20 14:28:00,SystemResetWarning,0832.6,5.00,000.00,029.2,028.1,000.0,037.6,030.9,8.7,0000.0,0000.63,0001.25,0000.39
2023-10-20 14:29:00,SystemResetWarning,0832.6,5.01,000.00,029.3,028.1,000.0,037.6,030.9,8.7,0000.0,0000.64,0001.27,0000.39
2023-10-20 14:30:00,SystemResetWarning,0832.5,5.00,000.00,029.3,028.1,000.0,037.6,030.9,8.8,0000.0,0000.62,0001.15,0000.39
2023-10-20 14:31:00,SystemResetWarning,0832.5,5.00,000.00,029.3,028.0,000.0,037.6,031.0,8.6,0000.0,0000.59,0001.09,0000.38
2023-10-20 14:32:00,SystemResetWarning,0832.5,4.98,000.00,029.3,026.6,000.0,037.6,030.9,8.9,0000.0,0000.56,0001.03,0000.37
2023-10-20 14:33:00,SystemResetWarning,0832.5,5.01,000.00,029.2,025.1,000.0,037.5,030.7,8.8,0000.0,0000.55,0001.04,0000.37
2023-10-20 14:34:00,SystemResetWarning,0832.4,5.01,000.00,029.1,025.0,000.0,037.5,030.6,8.6,0000.0,0000.56,0001.01,0000.37
2023-10-20 14:35:00,SystemResetWarning,0832.4,5.00,000.00,029.0,025.3,000.0,037.5,030.4,8.2,0000.0,0000.56,0000.95,0000.36
2023-10-20 14:36:00,SystemResetWarning,0832.4,5.00,000.00,028.9,025.6,000.0,037.5,030.4,8.7,0000.0,0000.54,0000.91,0000.36
2023-10-20 14:37:00,SystemResetWarning,0832.4,4.99,000.00,028.9,026.0,000.0,037.5,030.4,9.1,0000.0,0000.53,0000.84,0000.36
2023-10-20 14:38:00,SystemResetWarning,0832.4,5.00,000.00,028.9,026.3,000.0,037.5,030.4,8.9,0000.0,0000.53,0000.85,0000.36
2023-10-20 14:39:00,SystemResetWarning,0832.5,5.01,000.00,028.9,026.6,000.0,037.5,030.5,8.7,0000.0,0000.51,0001.19,0000.35
2023-10-20 14:40:00,SystemResetWarning,0832.5,4.99,000.00,028.9,026.8,000.0,037.5,030.5,8.9,0000.0,0000.52,0002.24,0000.35
2023-10-20 14:41:00,SystemResetWarning,0832.5,4.99,000.00,028.9,027.0,000.0,037.4,030.5,8.7,0000.0,0000.57,0002.89,0000.35
2023-10-20 14:42:00,SystemResetWarning,0832.5,5.00,000.00,028.9,027.2,000.0,037.4,030.6,8.5,0000.0,0000.59,0002.91,0000.36
2023-10-20 14:43:00,SystemResetWarning,0832.5,5.01,000.00,028.9,027.4,000.0,037.4,030.6,9.1,0000.0,0000.60,0002.93,0000.37
2023-10-20 14:44:00,SystemResetWarning,0832.5,5.01,000.00,028.9,027.5,000.0,037.4,030.6,9.7,0000.0,0000.61,0003.27,0000.37
2023-10-20 14:45:00,SystemResetWarning,0832.5,4.98,000.00,029.0,027.6,000.0,037.4,030.7,9.3,0000.0,0000.62,0003.27,0000.37
2023-10-20 14:46:00,SystemResetWarning,0832.5,5.00,000.00,029.0,027.7,000.0,037.5,030.7,9.0,0000.0,0000.60,0003.24,0000.38
2023-10-20 14:47:00,SystemResetWarning,0832.5,5.01,000.00,029.0,027.8,000.0,037.5,030.7,9.0,0000.0,0000.61,0003.27,0000.38
2023-10-20 14:48:00,SystemResetWarning,0832.5,5.00,000.00,029.0,027.8,000.0,037.5,030.8,8.8,0000.0,0000.61,0003.30,0000.39
2023-10-20 14:49:00,SystemResetWarning,0832.5,5.00,000.00,029.1,027.9,000.0,037.5,030.8,8.9,0000.0,0000.61,0003.32,0000.39
2023-10-20 14:50:00,SystemResetWarning,0832.6,4.99,000.00,029.1,027.9,000.0,037.5,030.8,8.9,0000.0,0000.59,0002.92,0000.39
2023-10-20 14:51:00,SystemResetWarning,0832.5,5.00,000.00,029.1,028.0,000.0,037.5,030.9,8.6,0000.0,0000.57,0001.92,0000.39
2023-10-20 14:52:00,SystemResetWarning,0832.5,5.02,000.00,029.2,028.0,000.0,037.5,030.9,8.6,0000.0,0000.52,0001.14,0000.39
2023-10-20 14:53:00,SystemResetWarning,0832.6,4.99,000.00,029.2,028.1,000.0,037.6,030.9,8.5,0000.0,0000.50,0001.11,0000.39
2023-10-20 14:54:00,SystemResetWarning,0832.5,4.99,000.00,029.2,028.1,000.0,037.6,031.0,8.3,0000.0,0000.56,0001.90,0000.39
2023-10-20 14:55:00,SystemResetWarning,0832.5,4.99,000.00,029.2,027.4,000.0,037.6,031.0,8.2,0000.0,0000.61,0002.75,0000.39
2023-10-20 14:56:00,SystemResetWarning,0832.5,5.00,000.00,029.2,025.6,000.0,037.5,030.8,8.2,0000.0,0000.73,0005.30,0000.41
2023-10-20 14:57:00,SystemResetWarning,0832.5,5.01,000.00,029.1,025.0,000.0,037.4,030.6,8.4,0000.0,0000.97,0008.03,0000.42
2023-10-20 14:58:00,SystemResetWarning,0832.4,5.01,000.00,029.0,025.3,000.0,037.4,030.5,8.6,0000.0,0001.14,0009.68,0000.44
2023-10-20 14:59:00,SystemResetWarning,0832.3,5.00,000.00,028.9,025.6,000.0,037.5,030.4,8.7,0000.0,0001.23,0011.72,0000.44
